N4XWC Weather Reports


time (UTC)temp
F
wind
direction
speed
knots
gust
knots
rain 1hr
in
rain 24hr
in
rain mn
in
humidity
%
barometer
mb
20260505233011 72 203 0.0 0.9 0.00 0.00 0.00 69 1011.7
20260505232512 72 210 0.9 1.7 0.00 0.00 0.00 69 1011.7
20260505232214 72 230 0.0 0.9 0.00 0.00 0.00 69 1011.7
20260505232011 72 186 1.7 3.5 0.00 0.00 0.00 69 1011.7
20260505231510 72 219 0.9 2.6 0.00 0.00 0.00 69 1011.7
20260505231214 72 205 1.7 1.7 0.00 0.00 0.00 69 1011.4
20260505231011 72 193 1.7 1.7 0.00 0.00 0.00 69 1011.4
20260505230512 72 217 1.7 1.7 0.00 0.00 0.00 68 1011.4
20260505230216 72 203 0.0 2.6 0.00 0.00 0.00 68 1011.4
20260505230012 72 199 1.7 3.5 0.00 0.00 0.00 68 1011.4
20260505225511 72 229 0.9 1.7 0.00 0.00 0.00 67 1011.6
20260505225215 72 219 0.9 1.7 0.00 0.00 0.00 69 1011.6
20260505225011 72 241 0.0 2.6 0.00 0.00 0.00 69 1011.6
20260505224512 72 215 0.0 0.9 0.00 0.00 0.00 68 1011.6
20260505224213 72 137 0.9 4.3 0.00 0.00 0.00 68 1011.6
20260505224012 72 243 1.7 1.7 0.00 0.00 0.00 68 1011.6
20260505223510 72 224 2.6 2.6 0.00 0.00 0.00 68 1011.6
20260505223215 72 216 0.9 2.6 0.00 0.00 0.00 69 1011.6
20260505223011 72 208 0.9 0.9 0.00 0.00 0.00 69 1011.6
20260505222512 72 246 0.9 3.5 0.00 0.00 0.00 69 1011.6
20260505222214 72 195 0.0 0.9 0.00 0.00 0.00 69 1011.6
20260505222011 72 200 0.0 0.0 0.00 0.00 0.00 69 1011.6
20260505221510 72 216 2.6 2.6 0.00 0.00 0.00 68 1011.6
20260505221215 72 227 1.7 4.3 0.00 0.00 0.00 68 1011.6
20260505221012 72 227 2.6 4.3 0.00 0.00 0.00 69 1011.6
20260505220512 72 155 0.0 1.7 0.00 0.00 0.00 68 1011.6
20260505220213 72 179 0.9 3.5 0.00 0.00 0.00 67 1011.6
20260505220010 72 205 0.0 1.7 0.00 0.00 0.00 68 1011.6
20260505215511 72 188 0.0 2.6 0.00 0.00 0.00 68 1011.7
20260505215214 72 216 0.0 2.6 0.00 0.00 0.00 68 1011.7
20260505215011 72 232 0.9 3.5 0.00 0.00 0.00 68 1011.7
20260505214512 72 192 1.7 3.5 0.00 0.00 0.00 67 1011.7
20260505214214 72 199 2.6 5.2 0.00 0.00 0.00 66 1011.8
20260505214010 72 244 0.9 2.6 0.00 0.00 0.00 66 1011.8
20260505213510 72 236 1.7 4.3 0.00 0.00 0.00 66 1011.8
20260505213214 72 230 0.9 3.5 0.00 0.00 0.00 66 1011.8
20260505213011 72 205 1.7 5.2 0.00 0.00 0.00 66 1011.8
20260505212512 73 184 3.5 4.3 0.00 0.00 0.00 67 1011.8
20260505212214 72 223 1.7 2.6 0.00 0.00 0.00 66 1011.8
20260505212011 72 200 0.9 2.6 0.00 0.00 0.00 66 1011.8
20260505211510 73 226 1.7 2.6 0.00 0.00 0.00 66 1011.8
20260505211215 73 192 0.0 0.9 0.00 0.00 0.00 66 1011.9
20260505211011 73 174 0.0 0.0 0.00 0.00 0.00 65 1011.9
20260505210510 73 277 4.3 4.3 0.00 0.00 0.00 67 1011.9
20260505210214 73 200 0.0 0.9 0.00 0.00 0.00 65 1011.9
20260505210010 73 185 2.6 4.3 0.00 0.00 0.00 66 1011.9
20260505205511 73 258 0.9 2.6 0.00 0.00 0.00 65 1012.0
20260505205213 72 223 2.6 4.3 0.00 0.00 0.00 65 1012.0
20260505205012 72 158 0.9 5.2 0.00 0.00 0.00 65 1012.0
20260505204511 72 257 2.6 2.6 0.00 0.00 0.00 63 1012.0
20260505204215 72 261 1.7 4.3 0.00 0.00 0.00 63 1011.9
20260505204012 72 175 0.9 6.1 0.00 0.00 0.00 63 1011.9
20260505203511 73 191 0.9 4.3 0.00 0.00 0.00 63 1011.9
20260505203213 73 196 0.9 1.7 0.00 0.00 0.00 63 1011.9
20260505203010 73 224 0.9 1.7 0.00 0.00 0.00 64 1011.9
20260505202511 73 184 0.0 1.7 0.00 0.00 0.00 63 1011.9
20260505202215 73 261 0.0 2.6 0.00 0.00 0.00 63 1011.9
20260505202012 73 181 0.9 5.2 0.00 0.00 0.00 63 1011.9
20260505201511 73 220 1.7 3.5 0.00 0.00 0.00 62 1011.9
20260505201214 74 158 0.9 2.6 0.00 0.00 0.00 63 1012.2
20260505201011 74 198 1.7 3.5 0.00 0.00 0.00 63 1012.2
20260505200510 74 184 2.6 5.2 0.00 0.00 0.00 63 1012.2
20260505200215 74 223 0.0 1.7 0.00 0.00 0.00 62 1012.2
20260505200012 74 257 0.0 0.9 0.00 0.00 0.00 63 1012.2
20260505195511 74 241 0.0 2.6 0.00 0.00 0.00 63 1012.5
20260505195214 74 226 1.7 4.3 0.00 0.00 0.00 61 1012.5
20260505195010 74 239 5.2 5.2 0.00 0.00 0.00 61 1012.5
20260505194511 74 184 0.0 1.7 0.00 0.00 0.00 61 1012.5
20260505194213 74 230 0.0 3.5 0.00 0.00 0.00 59 1012.5
20260505194011 74 160 1.7 5.2 0.00 0.00 0.00 59 1012.5
20260505193512 74 240 3.5 4.3 0.00 0.00 0.00 59 1012.5
20260505193215 74 195 1.7 2.6 0.00 0.00 0.00 61 1012.5
20260505193010 74 241 1.7 1.7 0.00 0.00 0.00 62 1012.5
20260505192511 73 184 0.9 4.3 0.00 0.00 0.00 63 1013.0
20260505192214 73 193 0.9 1.7 0.00 0.00 0.00 62 1013.0
20260505192011 73 223 1.7 5.2 0.00 0.00 0.00 63 1013.0
20260505191511 72 195 0.9 1.7 0.00 0.00 0.00 63 1013.0
20260505191214 73 232 5.2 5.2 0.00 0.00 0.00 62 1013.0
20260505191010 73 193 1.7 5.2 0.00 0.00 0.00 61 1013.0
20260505190512 73 164 1.7 1.7 0.00 0.00 0.00 61 1013.0
20260505190214 73 169 0.0 1.7 0.00 0.00 0.00 63 1013.0
20260505190010 73 186 2.6 4.3 0.00 0.00 0.00 63 1013.0
20260505185510 72 213 0.9 0.9 0.00 0.00 0.00 63 1013.4
20260505185215 72 256 0.0 4.3 0.00 0.00 0.00 63 1013.4
20260505185012 72 210 0.0 2.6 0.00 0.00 0.00 61 1013.4
20260505184512 72 196 5.2 5.2 0.00 0.00 0.00 61 1013.4
20260505184214 72 251 2.6 7.0 0.00 0.00 0.00 62 1013.4
20260505184010 72 229 0.9 1.7 0.00 0.00 0.00 61 1013.4
20260505183512 72 196 0.9 2.6 0.00 0.00 0.00 62 1013.4
20260505183213 72 208 1.7 1.7 0.00 0.00 0.00 62 1013.4
20260505183011 72 189 0.9 7.0 0.00 0.00 0.00 61 1013.4
20260505182511 72 239 4.3 4.3 0.00 0.00 0.00 62 1013.6
20260505182214 72 250 1.7 1.7 0.00 0.00 0.00 63 1013.6
20260505182010 72 243 0.9 7.0 0.00 0.00 0.00 62 1013.6
20260505181512 72 174 1.7 2.6 0.00 0.00 0.00 65 1013.6
20260505181213 72 171 0.0 0.9 0.00 0.00 0.00 66 1013.8
20260505181010 72 229 0.0 0.9 0.00 0.00 0.00 64 1013.8
20260505180511 72 189 0.0 2.6 0.00 0.00 0.00 63 1013.8
20260505180215 72 247 2.6 4.3 0.00 0.00 0.00 64 1013.8
20260505175944 72 256 1.7 1.7 0.00 0.00 0.00 65 1013.8
20260505175444 72 186 0.9 2.6 0.00 0.00 0.00 64 1013.8
20260505175215 72 215 0.0 5.2 0.00 0.00 0.00 63 1013.8
20260505174945 72 208 0.0 1.7 0.00 0.00 0.00 62 1013.8
20260505174443 72 152 0.0 1.7 0.00 0.00 0.00 64 1014.0
20260505174215 72 203 0.9 3.5 0.00 0.00 0.00 62 1014.0
20260505173944 72 229 2.6 2.6 0.00 0.00 0.00 64 1014.0
20260505173444 72 195 0.9 3.5 0.00 0.00 0.00 62 1014.0
20260505173215 72 226 1.7 7.8 0.00 0.00 0.00 62 1014.0
20260505172944 72 209 1.7 4.3 0.00 0.00 0.00 64 1014.1
20260505172444 72 182 0.9 1.7 0.00 0.00 0.00 62 1014.1
20260505172214 72 272 5.2 5.2 0.00 0.00 0.00 61 1014.1
20260505171944 72 209 0.9 2.6 0.00 0.00 0.00 61 1014.1
20260505171443 72 240 7.0 7.8 0.00 0.00 0.00 63 1014.1
20260505171214 72 127 1.7 2.6 0.00 0.00 0.00 64 1014.1
20260505170944 72 212 0.9 2.6 0.00 0.00 0.00 62 1014.1
20260505170444 72 172 0.9 1.7 0.00 0.00 0.00 63 1014.1
20260505170213 72 256 5.2 5.2 0.00 0.00 0.00 61 1014.1
20260505165943 72 215 1.7 4.3 0.00 0.00 0.00 62 1014.3